This is the latest recevied weather packets stored in our database for station/object F1ZVN-13. If no packets are shown the sender has not sent any weather packets the latest 1 day(s).
| Time | Temp. | Humidity | Pressure | Rain* | Wind** | Luminosity | Snow |
|---|---|---|---|---|---|---|---|
| 1778064619 | 3.89° C | 89% | 1001.3 hPa | 0 mm | 0 m/s | - | - |
| 1778063809 | 3.89° C | 94% | 1001.4 hPa | 0 mm | 0 m/s | - | - |
| 1778063646 | 3.89° C | 95% | 1001.3 hPa | 0 mm | 0 m/s | - | - |
| 1778062795 | 2.78° C | 95% | 1001.3 hPa | 0 mm | 0 m/s | - | - |
| 1778061824 | 2.78° C | 94% | 1001.3 hPa | 0 mm | 0 m/s | - | - |
| 1778061463 | 2.22° C | 96% | 1001.3 hPa | 0 mm | 0 m/s | - | - |
| 1778061340 | 2.22° C | 96% | 1001.3 hPa | 0 mm | 0 m/s | - | - |
| 1778060368 | 1.67° C | 92% | 1001 hPa | 0 mm | 0 m/s | - | - |
| 1778060128 | 1.67° C | 95% | 1001 hPa | 0 mm | 0 m/s | - | - |
| 1778059521 | 1.67° C | 86% | 1000.9 hPa | 0 mm | 0 m/s | - | - |
| 1778059037 | 1.67° C | 82% | 1000.8 hPa | 0 mm | 0 m/s | - | - |
| 1778058793 | 1.11° C | 84% | 1000.8 hPa | 0 mm | 0 m/s | - | - |
| 1778058311 | 1.11° C | 79% | 1000.8 hPa | 0 mm | 0 m/s | - | - |
| 1778058065 | 1.11° C | 79% | 1000.8 hPa | 0 mm | 0 m/s | - | - |
| 1778057700 | 1.11° C | 82% | 1000.6 hPa | 0 mm | 0 m/s | - | - |
| 1778057216 | 1.11° C | 82% | 1000.6 hPa | 0 mm | 0 m/s | - | - |
| 1778057095 | 0.56° C | 83% | 1000.6 hPa | 0 mm | 0 m/s | - | - |
| 1778057007 | 0.56° C | 83% | 1000.6 hPa | 0 mm | 0 m/s | - | - |
| 1778056852 | 0.56° C | 83% | 1000.6 hPa | 0 mm | 0 m/s | - | - |
| 1778056730 | 0.56° C | 83% | 1000.6 hPa | 0 mm | 0 m/s | - | - |
| 1778056367 | 0.56° C | 83% | 1000.5 hPa | 0 mm | 0 m/s | - | - |
| 1778056125 | 0.56° C | 85% | 1000.5 hPa | 0 mm | 0 m/s | - | - |
| 1778056002 | 0.56° C | 84% | 1000.5 hPa | 0 mm | 0 m/s | - | - |
| 1778055882 | 0° C | 84% | 1000.5 hPa | 0 mm | 0 m/s | - | - |
| 1778055396 | 0° C | 84% | 1000.5 hPa | 0 mm | 0 m/s | - | - |
* Rain latest hour (hover to see other rain measurements)
** Current wind speed in m/s (hover to see current wind gust speed)